This is the latest recevied weather packets stored in our database for station/object KD9CCP. If no packets are shown the sender has not sent any weather packets the latest 10 day(s).
| Time | Temp. | Humidity | Pressure | Rain* | Wind** | Luminosity | Snow |
|---|---|---|---|---|---|---|---|
| 1777387052 | 5° C | 95% | 1009.2 hPa | 0 mm | - | 20 W/m² | - |
| 1777386748 | 5° C | 95% | 1009.1 hPa | 0 mm | - | 21 W/m² | - |
| 1777386446 | 4.44° C | 96% | 1009 hPa | 0 mm | - | 19 W/m² | - |
| 1777386143 | 4.44° C | 96% | 1008.8 hPa | 0 mm | - | 20 W/m² | - |
| 1777385839 | 4.44° C | 96% | 1008.5 hPa | 0 mm | - | 21 W/m² | - |
| 1777385536 | 4.44° C | 97% | 1008.3 hPa | 0 mm | - | 16 W/m² | - |
| 1777385234 | 4.44° C | 98% | 1008.3 hPa | 0 mm | - | 17 W/m² | - |
| 1777384929 | 4.44° C | 97% | 1008.3 hPa | 0 mm | - | 16 W/m² | - |
| 1777384627 | 4.44° C | 98% | 1008.4 hPa | 0 mm | - | 14 W/m² | - |
| 1777384326 | 4.44° C | 98% | 1008.2 hPa | 0 mm | - | 16 W/m² | - |
| 1777384022 | 4.44° C | 98% | 1008.2 hPa | 0 mm | - | 18 W/m² | - |
| 1777383717 | 4.44° C | 98% | 1008.1 hPa | 0 mm | - | 16 W/m² | - |
| 1777383415 | 4.44° C | 98% | 1007.8 hPa | 0 mm | - | 16 W/m² | - |
| 1777383111 | 4.44° C | 98% | 1007.9 hPa | 0 mm | - | 16 W/m² | - |
| 1777382808 | 3.89° C | 98% | 1007.6 hPa | 0 mm | - | 15 W/m² | - |
| 1777382504 | 3.89° C | 98% | 1007.6 hPa | 0 mm | - | 15 W/m² | - |
| 1777382200 | 3.89° C | 98% | 1007.5 hPa | 0 mm | - | 13 W/m² | - |
| 1777381897 | 3.89° C | 98% | 1007.4 hPa | 0 mm | - | 12 W/m² | - |
| 1777381595 | 3.89° C | 99% | 1007.4 hPa | 0 mm | - | 9 W/m² | - |
| 1777381292 | 3.89° C | 98% | 1007.3 hPa | 0 mm | - | 8 W/m² | - |
| 1777380989 | 3.89° C | 99% | 1007.1 hPa | 0 mm | - | 9 W/m² | - |
| 1777380685 | 3.89° C | 98% | 1007 hPa | 0 mm | - | 6 W/m² | - |
| 1777380381 | 3.89° C | 99% | 1007.2 hPa | 0 mm | - | 6 W/m² | - |
| 1777380078 | 3.89° C | 98% | 1006.7 hPa | 0 mm | - | 6 W/m² | - |
| 1777379774 | 3.89° C | 98% | 1006.6 hPa | 0 mm | - | 4 W/m² | - |
* Rain latest hour (hover to see other rain measurements)
** Current wind speed in m/s (hover to see current wind gust speed)